This is the latest recevied weather packets stored in our database for station/object KC0AFB. If no packets are shown the sender has not sent any weather packets the latest 1 day(s).
| Time | Temp. | Humidity | Pressure | Rain* | Wind** | Luminosity | Snow |
|---|---|---|---|---|---|---|---|
| 1778096996 | 7.78° C | 47% | 1015.8 hPa | 0 mm | - | 261 W/m² | - |
| 1778096694 | 8.33° C | 46% | 1015.5 hPa | 0 mm | - | 244 W/m² | - |
| 1778096385 | 8.33° C | 47% | 1015.9 hPa | 0 mm | - | 321 W/m² | - |
| 1778095779 | 8.33° C | 51% | 1016.1 hPa | 0 mm | - | 838 W/m² | - |
| 1778094566 | 7.22° C | 48% | 1016.1 hPa | 0 mm | - | 818 W/m² | - |
| 1778093354 | 8.33° C | 50% | 1016.3 hPa | 0 mm | - | 832 W/m² | - |
| 1778092443 | 7.22° C | 50% | 1016.7 hPa | 0 mm | - | 300 W/m² | - |
| 1778091233 | 7.22° C | 56% | 1016.9 hPa | 0 mm | - | 418 W/m² | - |
| 1778089716 | 7.22° C | 49% | 1017.1 hPa | 0 mm | - | 377 W/m² | - |
| 1778088505 | 6.11° C | 50% | 1017.5 hPa | 0 mm | - | 788 W/m² | - |
| 1778087899 | 6.11° C | 50% | 1017.6 hPa | 0 mm | - | 326 W/m² | - |
| 1778087596 | 6.11° C | 49% | 1017.7 hPa | 0 mm | - | 329 W/m² | - |
| 1778086989 | 5.56° C | 51% | 1017.7 hPa | 0 mm | - | 371 W/m² | - |
| 1778085779 | 5.56° C | 51% | 1018 hPa | 0 mm | - | 302 W/m² | - |
| 1778084262 | 5° C | 55% | 1018.1 hPa | 0 mm | - | 681 W/m² | - |
| 1778083353 | 4.44° C | 54% | 1018.1 hPa | 0 mm | - | 260 W/m² | - |
| 1778077075 | 2.78° C | 61% | 1018.6 hPa | 0 mm | - | 219 W/m² | - |
| 1778076773 | 2.22° C | 64% | 1018.7 hPa | 0 mm | - | 198 W/m² | - |
| 1778076167 | 1.67° C | 67% | 1018.3 hPa | 0 mm | - | 209 W/m² | - |
| 1778075864 | 1.67° C | 69% | 1018.3 hPa | 0 mm | - | 196 W/m² | - |
| 1778075560 | 1.11° C | 68% | 1018.7 hPa | 0 mm | - | 202 W/m² | - |
| 1778074651 | 0° C | 73% | 1018.5 hPa | 0 mm | - | 139 W/m² | - |
| 1778074347 | 0° C | 74% | 1018.7 hPa | 0 mm | - | 131 W/m² | - |
| 1778073135 | -0.56° C | 78% | 1018.6 hPa | 0 mm | - | 102 W/m² | - |
| 1778072832 | -0.56° C | 79% | 1018.6 hPa | 0 mm | - | 97 W/m² | - |
* Rain latest hour (hover to see other rain measurements)
** Current wind speed in m/s (hover to see current wind gust speed)